Regional Weather Roundup
Issued by NWS

Home | Current Version | Previous Version | Text Only | Print | Product List | Glossary On
Versions: 1 2 3 4 5 6 7 8 9 10 11 12 13 14 15 16 17 18 19 20 21 22 23 24 25 26 27 28 29 30 31 32 33 34 35 36 37 38 39 40 41 42 43 44 45 46 47 48 49 50
000
ASUS44 KOUN 292310
RWROK

WEATHER ROUNDUP FOR OKLAHOMA
NATIONAL WEATHER SERVICE NORMAN OK
600 PM CDT FRI JUL 29 2016

NOTE: "FAIR" INDICATES FEW OR NO CLOUDS BELOW 12,000 FEET WITH NO
      SIGNIFICANT WEATHER AND/OR OBSTRUCTIONS TO VISIBILITY.

OKZ001>007-009>012-014-015-017-300000-
NORTHWEST OKLAHOMA AND THE PANHANDLE

CITY           SKY/WX    TMP DP  RH WIND       PRES   REMARKS
GAGE           SUNNY     91  62  37 N7        30.00S HX  91
GUYMON         SUNNY     88  58  36 VRB7      30.02S
ENID/WOODRING  MOSUNNY   86  68  54 E7        29.97S
$$

OKZ016-021>023-033>039-044-045-300000-
SOUTHWEST OKLAHOMA

CITY           SKY/WX    TMP DP  RH WIND       PRES   REMARKS
LAWTON/REGL    SUNNY     99  57  24 MISG      29.92F HX  98
LAWTON/FT SILL SUNNY     95  66  38 N12       29.91F HX  97
FREDERICK      SUNNY     97  64  33 S7        29.90F HX  99
CLINTON        CLOUDY    90  69  50 NE6       29.99F HX  94
HOBART         SUNNY     91  69  48 NE13      29.95F HX  96
ALTUS AFB      SUNNY     95  59  29 SE5       29.93F HX  94
$$

OKZ018>020-024>031-300000-
CENTRAL OKLAHOMA

CITY           SKY/WX    TMP DP  RH WIND       PRES   REMARKS
OKLAHOMA CITY  MOSUNNY   86  65  49 NE8       29.97F
OKC/WILEY POST SUNNY     85  65  51 E8        29.98F
OKC/TINKER AFB SUNNY     87  63  44 N7        29.97S
STILLWATER     SUNNY     84  65  52 E6        29.98S
GUTHRIE        SUNNY     87  65  47 E6        29.98S
$$

OKZ008-013-054>072-300000-
NORTHEAST OKLAHOMA

CITY           SKY/WX    TMP DP  RH WIND       PRES   REMARKS
TULSA          MOSUNNY   89  67  47 N12       29.94S HX  92
TULSA/JONES    MOSUNNY   90  67  46 N7        29.94S HX  93
PONCA CITY     MOSUNNY   84  64  50 CALM      29.98S
BARTLESVILLE   MOSUNNY   85  69  58 CALM      29.97S
MUSKOGEE       SUNNY     88  70  55 NE6       29.94F HX  93
$$

OKZ032-040>043-046>053-073>077-300000-
SOUTH CENTRAL/SOUTHEAST OKLAHOMA

CITY           SKY/WX    TMP DP  RH WIND       PRES   REMARKS
ARDMORE/DWNTWN SUNNY     91  64  40 S5        29.91F HX  93
MCALESTER      MOSUNNY   92  67  43 NW7       29.92F HX  95
$$





USA.gov is the U.S. government's official web portal to all federal, state and local government web resources and services.